sat.trackr.live / text

‹ back to catalog

STARLINK-37301

NORAD 68954 · 2026-099D

PAYLOAD ACTIVE UNKNOWN

§ Identity

Operator
Country
US
Launch date
2026-05-01
Launch site
AFETR
Launch vehicle
Mass (kg)
RCS (m²)

Purposes: comms

External: N2YO · Heavens-Above · Gunter

§ Orbital elements

Epoch: 2026-09-20T01:19:10.813728Z

Period
93.85 min
Inclination
53.1573°
Eccentricity
0.0002174
Mean motion
15.34367841 rev/d
Perigee alt
461.3 km
Apogee alt
464.3 km
Semi-major
6,840.9 km
B*
7.9667e-4
RAAN
78.0587°
Arg perigee
43.0706°
Mean anomaly
317.0466°
Rev number
2,183

§ Raw data

STARLINK-373011 68954U 26099D   26263.05498627  .00026609  00000+0  79667-3 0  99982 68954  53.1573  78.0587 0002174  43.0706 317.0466 15.34367841 21830

JSON: /api/v1/satellites/68954 · /tle

For live sub-satellite position, see the globe view (requires WebGL).

§ Visibility from observer

Set your observer location to see the next 7 days of passes ≥ 10°. The values pass through the URL so the page stays shareable.

No JS? Fill the form by hand. The geolocation button needs JavaScript.